Wind_Speed
55 49 47 46 49 42 40 40 36 32 32 33 35 30 30 28 29 28 26 27 26 26 27 27 28 29 28 27 26 26 26 27
55 52 49 45 49 47 42 39 39 35 34 31 35 33 33 31 28 27 26 27 28 27 27 27 29 30 30 28 26 24 24 26
63 58 55 51 48 50 45 44 40 38 36 31 33 37 35 32 31 28 26 27 30 28 29 27 29 29 31 29 27 26 28 27
63 59 59 56 51 52 50 47 43 38 36 35 30 33 36 34 31 32 29 30 30 30 30 28 29 30 31 29 28 28 28 29
59 59 59 56 53 50 50 45 42 39 36 34 29 32 37 36 35 36 32 30 30 30 30 29 29 30 32 31 29 30 32 33
52 55 56 56 58 52 48 43 40 37 32 34 33 29 32 36 35 37 35 32 31 32 31 29 28 29 32 32 30 32 36 33
53 46 51 53 55 52 46 44 40 37 34 33 30 33 31 36 35 38 36 34 33 32 31 30 29 30 32 33 30 32 32 37
51 57 55 54 50 49 49 45 44 44 40 38 31 33 36 38 38 39 37 33 33 32 31 31 28 29 31 32 29 31 31 24
56 59 57 55 54 54 53 47 46 46 46 42 36 31 34 40 41 38 38 35 35 35 32 32 27 29 30 32 27 30 28 26
58 60 59 58 53 47 48 51 49 47 49 47 45 29 35 41 44 42 41 36 36 37 33 33 27 28 29 29 26 27 19 23
46 54 51 50 47 48 51 52 51 48 49 55 48 40 43 47 47 48 42 38 38 38 34 34 28 27 28 29 25 23 21 17
34 40 45 46 47 49 49 48 51 55 59 61 54 44 48 48 48 48 42 38 40 38 35 34 30 26 27 29 26 21 22 21
30 36 38 37 37 37 38 40 41 46 53 54 54 55 53 47 47 46 42 41 41 39 37 35 29 25 27 29 26 22 18 21
30 30 32 35 35 34 34 35 34 39 47 48 50 53 51 50 46 45 43 42 43 40 38 35 30 26 27 27 29 21 17 19
16 18 22 26 28 29 30 31 33 34 36 37 38 45 49 46 44 43 42 43 45 40 40 37 31 27 26 27 30 25 23 21
11 14 18 19 20 23 29 33 35 36 36 38 41 42 42 41 43 42 42 44 46 43 42 38 30 28 29 29 30 30 26 26
13 15 16 16 16 17 20 24 29 32 35 37 37 40 38 39 40 42 42 43 44 44 39 37 33 32 31 30 31 33 30 28
6 7 9 13 15 14 14 17 22 26 31 32 31 29 34 38 38 35 40 37 41 44 40 39 37 35 35 33 32 33 35 32
7 7 7 8 10 11 12 13 15 19 29 30 29 32 35 35 39 45 43 48 46 46 46 46 43 38 37 37 35 35 37 38
Wind_Direction
244 250 248 244 248 252 250 252 259 256 252 253 260 259 262 261 263 269 275 277 278 281 285 288 293 296 295 288 285 280 269 265
245 246 249 247 249 252 250 250 256 259 257 251 255 257 255 257 261 265 273 275 276 278 281 286 288 293 295 287 288 284 272 256
238 241 242 243 240 247 250 249 249 257 259 250 246 252 255 254 259 266 268 268 274 277 278 283 286 292 295 289 286 285 277 257
231 233 235 238 237 240 247 247 246 248 253 253 249 255 263 260 259 261 261 261 271 273 276 280 284 291 293 286 283 284 275 261
233 236 238 237 240 241 241 248 249 249 245 251 253 253 254 260 260 262 262 262 266 267 271 276 282 289 291 287 282 279 274 269
227 236 242 240 237 240 240 247 249 249 253 250 252 252 255 256 259 262 260 258 260 263 266 272 278 286 291 289 282 279 281 271
225 226 230 237 236 237 241 242 249 251 250 248 251 247 254 257 257 257 259 258 257 260 264 270 277 284 289 290 283 286 276 277
225 234 235 238 242 239 239 239 241 246 248 248 243 240 246 253 257 258 258 256 257 258 259 266 273 281 287 290 286 289 285 262
224 224 226 232 238 242 240 240 244 245 247 250 246 243 246 250 254 256 257 253 255 256 256 262 270 280 285 288 285 290 289 254
219 220 226 235 238 242 245 243 241 245 249 251 248 239 247 250 255 257 255 251 253 254 253 260 267 276 281 286 284 287 286 258
223 225 228 234 238 246 249 245 241 241 245 250 247 254 253 252 255 259 254 250 250 253 252 257 262 270 278 284 282 283 289 278
224 227 234 242 247 246 244 243 241 241 245 249 250 249 255 255 256 257 249 246 248 248 248 254 259 265 273 279 280 276 283 281
238 239 239 238 242 245 247 250 245 241 243 249 247 246 249 253 253 249 244 243 246 245 246 251 255 259 268 275 276 276 276 290
240 244 247 242 238 235 235 240 241 241 239 238 245 243 247 249 248 247 243 239 243 242 243 245 249 254 262 270 274 269 264 270
241 247 250 250 252 250 245 245 246 243 245 243 242 243 246 247 246 244 242 242 243 241 241 242 244 250 256 262 266 263 249 250
263 271 263 254 253 249 248 245 245 249 245 243 244 245 248 249 248 244 242 239 241 239 240 240 243 247 250 254 260 259 257 249
266 271 279 280 276 268 253 242 239 240 241 241 241 241 247 247 247 250 245 241 242 244 245 241 240 242 247 250 255 258 253 252
272 283 299 285 278 277 264 246 235 233 233 238 238 242 247 244 240 238 246 235 236 244 244 240 241 244 247 250 253 256 255 250
301 306 305 309 296 295 296 286 257 249 238 232 233 233 242 247 241 237 239 247 244 240 240 238 239 242 249 252 253 255 259 256
Height
5717 5724 5730 5734 5734 5740 5745 5750 5754 5756 5757 5758 5759 5761 5762 5764 5765 5766 5767 5767 5767 5766 5765 5764 5763 5763 5760 5759 5759 5758 5757 5758
5711 5714 5717 5724 5724 5726 5735 5740 5744 5746 5750 5753 5752 5753 5754 5756 5758 5759 5761 5760 5760 5761 5760 5759 5758 5756 5755 5752 5752 5751 5751 5752
5697 5701 5703 5709 5716 5717 5723 5729 5735 5738 5740 5745 5744 5745 5746 5748 5750 5753 5755 5754 5754 5755 5753 5752 5751 5750 5749 5746 5745 5745 5744 5744
5675 5681 5690 5697 5704 5709 5712 5719 5726 5730 5733 5734 5738 5739 5739 5742 5745 5744 5747 5748 5748 5747 5746 5746 5745 5744 5742 5740 5739 5738 5737 5736
5666 5673 5681 5689 5695 5701 5705 5711 5717 5722 5724 5726 5729 5731 5731 5735 5736 5737 5739 5741 5741 5740 5740 5740 5739 5737 5736 5733 5732 5731 5730 5730
5656 5664 5670 5678 5685 5691 5697 5702 5708 5713 5716 5719 5719 5723 5724 5725 5728 5729 5731 5734 5734 5733 5734 5733 5732 5731 5729 5727 5725 5724 5722 5721
5650 5655 5660 5666 5673 5681 5688 5694 5697 5702 5705 5709 5711 5712 5715 5716 5720 5721 5722 5724 5725 5726 5726 5726 5725 5724 5722 5720 5718 5717 5715 5710
5642 5649 5652 5657 5664 5669 5675 5682 5687 5691 5695 5699 5704 5704 5705 5706 5709 5712 5713 5716 5716 5717 5718 5718 5718 5716 5715 5713 5711 5710 5705 5700
5631 5637 5642 5648 5654 5658 5664 5671 5675 5680 5683 5689 5695 5698 5699 5698 5698 5703 5705 5707 5708 5709 5711 5710 5710 5709 5709 5707 5705 5703 5697 5693
5623 5629 5635 5642 5648 5653 5657 5660 5665 5669 5672 5677 5680 5687 5689 5690 5689 5693 5696 5699 5701 5702 5703 5702 5702 5702 5702 5700 5698 5697 5693 5690
5616 5623 5629 5634 5638 5642 5645 5648 5653 5658 5661 5662 5670 5673 5677 5678 5681 5682 5686 5689 5691 5693 5695 5694 5694 5695 5694 5694 5693 5690 5688 5686
5611 5616 5621 5625 5629 5631 5633 5635 5640 5645 5649 5651 5658 5661 5664 5667 5670 5673 5676 5679 5681 5685 5687 5687 5687 5686 5687 5687 5687 5685 5683 5682
5605 5610 5615 5619 5620 5622 5623 5626 5630 5633 5636 5640 5644 5648 5651 5656 5659 5662 5664 5667 5670 5674 5678 5679 5679 5678 5680 5680 5680 5680 5677 5676
5602 5605 5607 5610 5611 5613 5616 5619 5622 5624 5627 5629 5633 5637 5641 5644 5648 5652 5655 5656 5660 5664 5668 5670 5670 5671 5672 5673 5674 5675 5673 5674
5597 5598 5600 5602 5603 5605 5607 5609 5610 5615 5618 5620 5623 5628 5631 5634 5638 5642 5646 5648 5650 5655 5658 5661 5662 5663 5665 5666 5667 5668 5670 5670
5592 5593 5596 5597 5597 5597 5599 5601 5603 5606 5608 5611 5614 5618 5622 5625 5626 5629 5634 5636 5639 5644 5648 5652 5655 5655 5656 5657 5659 5661 5662 5663
5590 5591 5591 5589 5589 5590 5592 5593 5595 5598 5600 5602 5605 5608 5612 5615 5619 5621 5625 5627 5631 5635 5640 5644 5646 5646 5647 5649 5650 5652 5654 5656
5589 5589 5587 5586 5586 5587 5586 5586 5588 5589 5592 5595 5597 5600 5603 5606 5611 5611 5612 5606 5620 5625 5630 5634 5636 5637 5639 5640 5642 5644 5646 5648
5585 5586 5586 5585 5583 5582 5581 5581 5582 5583 5584 5586 5589 5591 5594 5597 5601 5605 5602 5603 5609 5614 5618 5622 5625 5627 5628 5630 5632 5634 5636 5638